Theta_e
328 321 315 314 314 311 307 304 298 294 294 290 288 290 293 295 297 301 302 302 304 309 309 314 312 313 310 309 310 313 314 307 303 300 296 306 321 328 329 332 333 335 336 339 341 342 343 346 347 346 346 345 344 343 342 341 342 342 341 341 342 345 344 343 343 343 342 340 340 342 343 343 344 342 340 341 341 342 343 342 341 339 338 339 340 340 339 338 338 338 338 340 339 339 339 339 339
324 319 313 314 313 310 305 300 292 288 288 287 290 290 293 295 301 299 301 302 304 312 314 317 318 318 318 318 317 315 311 315 316 313 318 323 327 328 331 334 335 336 338 340 340 341 341 343 346 346 345 344 343 342 341 340 340 340 340 340 341 340 342 342 342 342 340 339 343 344 345 346 346 343 342 342 343 344 343 340 339 340 341 338 337 338 338 338 338 339 339 339 339 339 339 338 337
324 317 314 309 309 307 303 298 295 285 287 285 287 290 298 298 299 300 302 308 311 314 316 316 317 316 315 315 312 309 305 317 320 319 318 325 324 325 332 334 337 338 339 339 340 339 340 342 345 346 344 343 342 341 340 339 340 341 341 340 340 340 340 340 341 341 341 341 344 345 346 347 346 343 341 339 339 339 340 342 342 341 340 339 339 339 339 338 338 338 338 339 339 339 338 337 337
321 318 313 307 305 301 296 292 289 287 288 284 288 295 299 299 300 303 307 310 313 313 311 312 314 317 314 311 312 316 314 317 321 319 319 322 323 329 332 336 337 338 338 339 339 339 339 343 345 346 344 342 341 340 339 340 340 340 339 339 341 340 339 339 340 340 339 340 345 347 347 347 347 345 343 342 342 342 341 341 340 337 336 337 338 339 337 338 338 338 339 338 339 339 338 338 336
318 319 310 306 302 301 296 291 289 286 286 286 288 293 297 300 304 303 306 305 306 307 309 311 312 318 318 315 316 309 311 318 321 323 320 322 328 332 332 336 337 337 339 339 339 338 338 343 344 344 343 343 342 341 341 340 340 340 339 340 340 339 340 340 340 340 340 340 344 347 347 345 344 344 344 344 341 340 342 340 339 338 338 337 336 337 337 337 337 337 337 338 338 339 338 337 336
314 313 314 308 304 303 294 290 290 288 289 292 294 298 299 302 303 303 306 306 306 306 309 311 312 313 314 317 317 312 318 314 321 322 322 322 330 332 334 335 336 336 338 338 338 337 337 341 343 343 344 342 341 340 340 339 339 340 340 340 339 338 339 340 339 340 340 340 342 345 345 345 344 345 344 343 341 339 338 337 336 336 337 338 337 337 338 337 337 337 337 337 337 337 337 337 337
314 307 306 304 303 299 292 286 286 285 292 297 298 300 303 303 304 303 304 305 309 312 313 314 317 315 312 314 317 321 323 324 322 322 325 327 330 332 333 334 334 335 338 339 338 337 336 341 344 345 344 343 341 339 339 339 339 339 340 340 339 338 338 340 339 339 340 341 343 344 344 345 345 344 343 343 341 340 340 340 339 338 337 336 337 336 337 337 337 338 337 337 337 337 336 336 336
316 308 304 297 294 295 290 289 288 287 294 298 301 303 303 305 303 302 302 304 305 309 313 315 313 311 310 317 310 318 323 324 324 325 327 328 330 331 332 334 334 336 338 339 337 336 343 340 343 343 343 343 341 339 339 339 339 338 338 337 337 338 340 340 340 341 341 340 344 345 344 344 344 343 342 341 340 339 338 338 338 338 338 336 336 337 337 337 337 338 337 336 336 336 336 336 335
312 308 307 299 293 292 289 291 292 290 291 298 303 303 310 305 303 301 300 301 304 306 310 312 311 306 309 312 311 316 320 324 325 327 327 328 329 330 333 334 334 335 338 339 336 337 338 340 342 343 343 343 341 339 339 339 338 337 338 337 336 339 341 341 341 341 341 341 340 343 343 343 343 343 343 341 340 338 338 338 338 337 337 337 337 337 337 337 337 337 336 336 336 335 335 335 335
311 308 300 298 297 294 289 290 290 293 293 298 302 304 305 304 302 301 300 303 305 305 309 311 310 308 312 311 312 317 318 324 325 325 326 327 328 331 333 334 335 335 337 338 336 339 340 344 339 340 341 342 342 341 338 338 338 338 338 338 339 340 341 341 341 340 340 339 340 340 342 342 342 342 342 341 339 339 338 338 338 338 337 336 336 337 337 336 336 336 335 335 334 334 334 334 334
304 309 307 299 290 289 290 291 288 291 296 295 298 298 305 302 301 299 301 302 303 307 310 313 313 312 313 312 311 317 323 323 324 322 324 327 330 332 333 334 335 336 336 338 337 339 341 341 341 338 340 340 340 340 340 340 338 338 337 338 341 341 341 340 340 339 339 339 341 342 342 342 342 342 342 341 340 339 338 338 337 337 337 338 336 336 336 336 335 335 335 334 333 333 333 333 333
301 304 303 293 292 290 290 289 291 291 293 295 300 302 298 301 300 301 302 304 304 307 309 312 311 313 313 314 312 318 322 322 324 323 324 329 331 333 334 335 335 335 338 338 338 340 341 341 340 341 336 336 338 339 339 339 340 339 341 338 340 340 339 339 338 338 338 338 341 342 342 342 341 341 340 339 340 338 337 337 337 337 336 336 336 336 336 335 335 334 333 332 332 332 332 332 333
302 305 299 296 292 291 292 288 291 294 292 294 298 301 298 299 301 302 302 303 303 301 304 306 318 314 310 313 314 320 320 322 322 323 327 332 332 334 334 335 336 337 339 338 338 339 340 339 339 338 336 334 333 334 336 336 339 341 341 341 341 340 339 338 337 337 338 339 341 340 341 341 341 339 339 339 339 338 337 338 337 335 336 336 336 336 336 335 334 333 333 332 332 332 331 332 333
305 304 301 298 293 291 289 289 290 291 291 294 296 297 300 299 300 302 304 303 302 301 305 310 318 315 313 316 316 316 320 323 323 323 328 332 334 334 335 336 336 337 338 338 338 338 338 338 336 335 334 332 330 332 333 336 338 340 339 339 340 340 339 339 339 340 340 340 340 340 340 340 340 339 340 340 339 338 336 336 337 336 336 336 336 335 334 334 333 333 332 332 332 332 332 332 333
306 308 302 297 292 291 291 290 292 289 291 293 299 300 300 302 299 298 305 302 304 305 312 311 316 311 310 314 313 318 321 323 323 324 329 332 334 335 334 335 336 336 338 338 339 338 337 336 334 333 332 330 329 330 330 334 333 336 337 337 338 338 338 339 339 338 338 339 338 336 336 336 336 336 336 336 336 336 334 332 335 337 336 335 335 335 334 333 333 333 332 332 332 332 332 332 331
305 304 301 298 292 291 292 291 290 290 291 294 298 299 299 301 301 303 304 304 305 307 308 312 312 307 310 315 316 322 324 323 323 326 330 331 333 334 334 334 334 336 337 338 338 337 336 335 333 332 331 330 328 329 330 330 332 331 334 335 336 336 337 337 335 334 332 332 331 330 329 328 328 328 329 330 332 335 333 328 332 335 334 334 334 334 333 332 332 332 332 332 331 332 331 331 329
305 302 299 293 292 291 294 292 291 290 291 294 295 299 299 300 301 303 303 305 308 309 311 313 310 316 316 317 317 325 324 323 323 327 329 329 331 331 331 332 333 334 336 337 337 335 335 334 332 330 329 329 329 328 329 330 331 329 330 331 332 333 334 334 333 327 325 324 324 323 324 323 323 324 326 324 324 325 324 326 330 335 334 334 333 333 332 332 332 331 331 331 330 332 327 324 323
306 300 297 295 292 290 292 293 293 293 295 295 297 297 298 298 301 304 306 309 305 306 309 309 313 315 316 319 322 325 323 321 324 326 326 326 328 328 328 330 331 331 333 335 336 334 333 334 332 330 328 326 327 331 333 332 330 329 326 326 328 329 329 328 326 325 328 321 321 322 321 323 323 324 325 327 324 324 324 325 329 333 334 333 332 332 332 331 331 331 331 330 332 331 324 315 314
300 295 295 295 295 295 295 293 295 295 295 296 297 296 299 301 300 302 303 302 305 305 308 307 310 314 317 320 322 322 321 320 322 324 324 324 326 326 327 329 330 331 332 334 335 334 332 332 332 330 328 325 325 331 333 332 331 330 329 326 324 325 328 325 323 324 321 320 319 320 320 322 323 324 324 324 325 322 324 324 328 331 332 332 334 332 332 332 332 332 331 332 331 326 316 313 313
303 297 293 294 300 298 293 293 293 295 297 297 296 297 297 300 301 302 301 300 302 301 303 305 308 310 313 316 320 320 320 319 321 322 323 324 325 327 327 327 329 331 332 333 334 335 332 330 331 330 328 326 326 329 331 332 332 331 330 328 323 323 323 323 321 320 320 319 319 318 318 319 322 323 325 326 325 324 323 322 324 325 327 327 328 326 326 326 328 327 327 326 320 314 312 312 312
304 298 294 298 300 294 295 292 293 292 297 296 295 295 297 298 297 300 297 302 299 301 304 307 308 311 314 317 319 319 319 318 318 320 321 321 322 326 328 328 329 331 333 334 334 334 333 330 329 328 328 327 325 327 330 331 332 331 330 327 322 322 322 321 321 321 319 319 318 319 317 320 323 323 323 323 322 323 323 322 323 324 324 324 322 322 320 319 318 315 312 313 312 312 311 311 310
302 299 298 300 296 296 296 293 294 293 292 295 292 297 297 297 298 297 301 299 297 302 304 308 309 317 316 317 318 319 318 317 318 318 318 319 319 321 324 327 327 329 328 331 333 334 334 331 329 328 327 326 325 326 328 330 330 330 330 328 323 322 322 321 320 321 320 319 318 318 317 321 322 323 322 321 321 321 321 321 320 321 321 321 320 321 319 318 317 315 312 310 311 311 312 311 310
301 301 302 299 295 297 295 293 294 293 294 294 294 297 294 295 296 295 300 300 297 298 302 309 314 319 320 320 319 318 317 317 317 317 318 318 318 320 321 325 324 324 326 330 333 334 335 333 329 329 327 326 325 325 327 328 329 330 330 329 326 323 321 321 321 320 320 319 318 317 319 320 322 322 321 320 320 319 320 320 320 320 320 319 320 319 318 317 316 315 314 313 311 310 312 310 311
302 301 303 303 295 296 294 296 292 291 293 293 294 296 296 293 296 294 296 298 298 296 295 304 316 319 320 319 319 319 318 318 318 319 319 319 319 320 321 322 323 323 324 329 331 332 332 333 332 328 328 327 325 325 325 327 329 329 329 327 327 324 322 322 322 321 320 320 319 319 319 320 321 321 321 320 320 318 319 319 319 319 319 319 319 317 317 316 316 316 314 311 313 311 312 313 311
302 301 304 303 295 295 294 292 293 293 294 294 298 296 296 293 294 293 293 297 297 296 301 313 318 318 319 319 318 319 319 318 318 319 319 319 319 320 318 320 321 320 320 324 329 330 331 333 332 329 329 327 327 326 324 325 327 327 326 326 326 324 323 323 323 322 320 320 320 319 319 319 319 321 320 320 319 318 318 318 319 319 319 318 318 317 315 314 314 315 314 314 311 313 310 313 311
302 305 303 300 299 296 295 295 294 295 296 297 299 297 296 295 296 296 298 296 295 301 305 315 317 317 317 318 319 319 318 319 319 318 319 319 319 318 318 318 319 319 320 322 325 328 329 330 331 330 329 329 328 326 324 324 325 325 324 325 326 322 324 324 322 322 322 320 320 320 319 320 319 320 319 318 317 317 316 316 318 318 318 318 317 317 315 313 314 311 311 311 313 312 311 313 311
306 305 303 303 303 296 297 296 295 295 297 295 299 296 297 297 298 295 296 298 304 305 305 312 316 316 317 318 318 319 319 319 319 320 318 318 318 319 318 318 318 320 320 320 322 325 326 326 328 328 329 328 328 326 325 324 324 324 324 324 324 322 323 323 322 322 321 321 321 320 320 319 320 319 319 318 316 317 316 316 316 315 315 315 315 316 314 313 313 313 314 313 313 312 312 313 312
305 306 302 303 302 302 302 301 299 296 298 295 298 296 295 296 295 297 300 298 302 304 305 312 314 315 317 317 318 319 319 320 320 318 319 318 318 319 319 319 318 320 320 320 321 323 323 324 326 327 328 328 328 327 325 324 323 324 323 323 323 323 322 322 321 321 320 321 320 320 320 320 319 319 319 318 318 316 316 316 315 315 316 315 315 316 315 313 313 313 311 312 312 311 313 312 311
304 305 303 302 301 301 301 299 300 296 298 296 297 298 298 295 295 299 301 295 301 304 307 311 313 314 315 316 317 318 319 319 319 319 320 321 321 321 320 321 320 319 321 321 322 322 322 322 324 325 326 326 327 327 326 325 324 323 323 323 323 323 321 321 321 321 321 320 320 320 320 319 318 319 319 318 317 317 316 316 315 316 317 317 316 316 315 314 310 310 312 309 310 310 310 314 311
305 305 302 300 298 297 301 302 299 296 299 295 301 292 297 300 301 300 300 296 302 304 304 309 312 313 314 315 316 317 318 317 318 320 321 322 322 321 321 321 321 320 320 320 320 321 323 323 323 323 322 324 326 327 326 324 323 323 322 323 322 322 321 321 321 321 320 320 320 319 320 319 318 319 319 318 317 317 317 317 317 317 317 315 315 315 314 313 313 311 313 310 315 313 314 316 311
302 301 302 294 292 293 299 302 300 299 298 295 303 294 298 299 301 303 301 299 303 303 305 307 310 311 313 314 315 316 317 318 319 320 321 321 322 322 322 322 322 322 319 319 320 321 321 323 323 323 321 322 322 325 324 324 322 322 321 321 322 322 322 321 322 321 320 320 320 320 320 319 319 319 318 319 318 317 317 316 316 318 318 316 314 314 315 315 314 314 311 313 313 312 311 313 312
300 299 295 294 294 294 298 301 302 301 301 298 301 294 298 301 303 304 301 298 300 301 304 306 308 310 311 313 315 316 317 318 319 320 321 321 321 322 322 322 322 322 321 319 319 320 321 322 322 322 321 321 321 322 323 323 322 321 320 320 321 321 321 321 321 321 321 320 320 320 320 320 320 320 319 318 319 318 318 317 318 318 317 316 315 315 315 316 315 314 314 314 313 313 312 313 311
299 300 293 295 292 294 296 299 301 304 299 299 301 296 294 295 296 296 295 297 297 299 300 303 306 307 309 311 314 315 316 316 317 319 320 321 322 323 323 323 322 322 322 320 319 319 320 321 321 322 321 321 321 321 321 321 321 320 320 320 320 320 320 321 321 320 320 320 319 320 320 320 320 321 320 320 319 318 318 318 319 318 317 316 315 315 315 316 316 315 314 313 314 315 311 312 313
296 297 294 294 295 294 293 296 297 300 300 298 298 297 299 297 298 297 296 295 295 296 297 297 302 306 307 308 310 313 315 315 316 318 319 321 322 322 323 322 323 322 322 322 320 319 320 320 321 322 322 322 322 322 321 321 321 320 320 319 318 320 320 320 320 319 320 320 320 320 321 321 321 321 321 320 319 319 319 319 319 318 318 317 316 315 316 316 315 315 316 314 313 313 313 313 312
294 295 293 292 292 295 296 294 296 299 298 298 297 296 298 301 303 303 299 294 295 296 297 298 297 301 305 306 308 310 313 314 316 318 320 321 321 322 323 323 323 323 323 322 321 319 319 319 320 320 321 322 322 322 321 320 319 319 317 318 318 318 319 319 320 319 320 320 321 321 321 321 320 322 321 320 319 319 318 318 319 318 318 318 317 316 315 315 315 314 315 316 312 313 315 313 313
297 297 297 293 292 292 294 296 295 300 296 296 296 296 298 300 300 301 303 293 295 296 295 296 296 296 298 302 305 306 309 312 317 318 318 320 321 322 322 323 323 324 324 323 321 320 319 319 319 320 320 322 322 322 320 319 318 318 318 316 316 317 318 318 319 321 321 320 321 321 321 321 322 321 321 320 319 319 319 319 319 318 318 318 317 316 316 315 316 314 314 315 314 310 309 311 307
301 299 297 294 294 293 296 298 297 299 295 296 297 298 298 299 299 301 302 296 295 296 296 294 294 295 296 298 301 304 306 309 313 315 315 318 320 321 322 322 322 322 323 323 322 321 319 319 318 318 320 321 321 320 319 319 318 317 316 318 318 319 319 319 320 320 321 322 321 322 322 322 321 321 320 320 319 318 319 319 319 318 318 318 318 318 318 317 317 316 316 313 314 312 311 308 306
300 298 295 295 292 294 295 298 298 296 297 293 294 294 294 296 298 298 296 294 296 298 298 298 297 295 296 297 299 301 304 305 305 309 313 315 318 319 321 321 319 320 321 322 322 322 321 319 318 319 320 320 321 321 321 320 320 320 319 319 319 319 319 318 320 321 322 322 322 322 321 321 321 321 320 320 320 319 319 319 319 320 319 318 318 319 317 314 315 315 313 311 309 313 311 308 308
299 298 295 292 294 292 293 291 291 293 294 293 289 290 294 296 297 298 297 298 299 300 299 300 300 298 296 296 297 300 301 302 302 306 310 313 316 318 320 321 321 322 322 322 323 322 322 320 319 319 320 320 321 322 321 320 321 321 320 318 319 318 319 320 321 321 321 321 322 322 321 321 321 321 321 320 320 320 320 319 319 320 320 319 317 317 316 315 316 315 314 316 312 307 310 307 309
298 295 294 293 292 294 291 292 289 292 293 289 287 287 292 292 293 295 296 297 299 300 300 299 300 300 300 299 298 298 299 301 302 304 307 310 313 317 318 320 321 321 321 321 322 322 323 321 321 320 320 320 321 321 320 322 321 321 321 319 319 320 319 319 320 319 318 319 320 321 321 322 321 321 321 321 320 321 321 320 320 319 320 320 319 318 317 316 315 315 314 314 315 312 307 310 309
298 298 295 295 292 294 294 291 288 288 292 290 291 291 294 295 295 297 298 295 296 297 298 298 299 300 301 302 299 299 299 300 302 303 305 308 310 313 317 320 321 321 322 322 322 323 323 323 322 321 321 320 321 320 320 321 319 317 317 315 315 315 316 315 316 318 319 319 319 320 321 321 321 321 321 321 320 320 321 321 320 320 319 319 319 319 318 318 317 316 316 315 314 316 313 308 307
297 298 298 297 296 295 287 289 291 286 287 287 292 284 284 285 287 292 295 291 294 295 295 297 299 300 299 299 300 300 300 300 302 303 305 307 310 312 315 318 319 321 321 322 323 323 323 324 323 323 322 321 321 321 320 320 319 319 317 317 316 316 316 316 317 318 318 318 319 320 319 320 321 321 321 321 321 319 320 320 320 319 318 319 319 320 320 317 317 316 316 317 315 315 317 312 310
295 296 299 298 297 296 288 287 289 285 285 288 288 288 285 286 290 291 290 288 292 293 293 297 298 299 299 300 300 300 300 300 300 302 304 306 308 311 313 316 318 320 321 323 323 323 324 324 324 324 323 322 322 321 320 319 319 319 319 319 319 318 317 318 320 319 319 319 319 319 319 318 320 320 320 320 321 320 320 320 320 319 319 318 318 318 319 319 319 317 317 316 317 316 314 315 315
294 297 301 297 295 292 289 290 289 282 284 288 284 286 283 286 292 293 295 293 294 294 295 295 296 297 298 300 301 301 301 300 301 301 303 305 307 310 312 315 318 320 322 323 323 324 324 324 324 324 324 322 323 322 320 320 320 319 319 319 319 319 319 319 319 319 318 317 319 319 319 319 319 320 320 320 321 321 320 320 320 319 319 319 317 318 319 319 318 317 317 318 318 317 317 317 317
296 297 299 295 296 295 291 291 285 285 287 285 283 286 286 283 286 287 288 291 293 295 297 298 297 297 297 298 300 300 301 301 301 301 302 304 306 309 311 314 317 320 321 321 323 323 324 324 323 324 324 323 323 322 321 320 320 320 320 319 318 318 319 319 315 314 317 317 318 317 318 319 319 319 320 321 320 321 319 320 320 320 319 319 317 318 318 318 318 319 319 318 318 318 319 319 319
297 298 298 296 295 294 293 289 289 286 285 285 284 284 282 287 287 291 289 289 294 297 297 298 299 299 297 298 298 299 299 299 300 301 302 304 306 308 311 313 315 318 320 321 321 322 322 322 322 322 323 324 323 322 321 321 320 319 320 319 319 319 318 317 314 316 316 315 317 317 317 318 318 318 319 320 321 321 321 320 320 321 320 320 317 319 319 320 321 321 322 321 321 320 320 319 318
301 301 298 295 293 289 288 287 286 286 284 285 285 283 284 284 287 291 291 291 294 296 296 297 296 295 295 296 297 299 299 298 298 299 300 302 305 307 308 311 313 315 317 317 318 319 320 321 322 321 322 323 322 322 322 321 321 320 320 320 320 319 319 318 317 317 316 314 317 316 316 317 317 318 318 318 320 321 322 320 321 321 322 321 320 321 322 322 322 322 322 322 321 321 321 320 317
302 294 294 296 291 291 288 286 288 286 285 286 285 287 286 283 285 285 292 291 290 291 293 295 295 296 296 295 296 296 297 298 298 297 298 299 299 300 303 308 310 311 311 314 316 316 317 319 320 320 321 321 322 322 322 322 322 321 321 321 321 321 320 319 319 318 318 317 317 317 315 315 318 319 319 319 319 319 320 322 321 324 324 324 324 324 324 324 324 324 323 323 322 322 322 319 320
300 297 297 291 286 288 285 287 285 285 286 288 285 287 285 288 295 289 292 292 294 293 294 296 295 294 294 295 295 295 295 295 297 297 297 297 298 299 301 305 307 309 311 313 315 316 317 317 318 319 320 320 321 321 321 321 322 322 322 321 322 321 321 320 320 319 318 318 318 318 317 318 319 321 322 323 323 321 320 320 321 323 324 325 326 326 326 326 325 325 324 323 323 322 322 321 320
298 295 293 290 284 284 284 285 285 285 286 286 286 286 285 289 293 297 300 302 302 299 296 294 294 296 297 299 298 296 294 294 296 297 297 297 298 298 300 303 306 309 310 313 314 314 315 316 317 318 320 319 319 319 320 320 321 322 322 322 323 322 321 321 321 321 319 319 318 318 318 318 318 320 321 322 324 324 323 323 322 321 322 323 323 325 326 326 326 325 325 324 323 323 323 322 321
298 300 297 292 289 285 283 285 283 285 285 285 285 285 282 285 289 289 290 293 294 294 294 294 294 294 295 293 292 292 292 293 294 295 296 297 298 298 299 300 303 306 309 311 312 314 314 315 315 316 318 317 318 319 319 319 321 321 322 322 322 322 322 321 321 321 319 318 317 317 318 318 318 319 319 320 319 321 322 323 323 323 322 321 322 323 324 325 326 325 324 324 324 324 322 321 321
296 296 297 291 291 287 284 282 281 281 282 281 282 286 283 290 291 295 296 293 292 293 292 290 292 292 290 290 292 293 294 295 292 293 295 295 295 294 295 296 299 302 306 308 309 311 313 314 315 316 317 317 317 316 319 320 320 320 319 320 321 319 317 318 318 316 318 318 317 318 318 318 318 319 318 317 318 319 321 321 321 321 322 322 322 323 324 324 325 325 325 324 324 323 324 322 321
294 296 292 294 292 289 281 280 281 282 280 285 279 284 287 290 297 300 301 299 298 292 290 288 290 291 288 289 291 292 293 292 290 292 294 295 292 293 295 297 298 298 301 305 308 310 312 313 313 314 315 314 314 314 317 318 319 318 318 319 319 318 318 318 319 317 317 317 317 317 317 317 317 316 317 316 318 317 319 320 321 322 322 323 323 323 324 324 325 324 323 323 323 321 318 319 320
295 291 295 294 295 293 288 281 273 274 277 277 280 285 284 282 286 287 286 290 295 292 292 292 290 287 288 292 292 293 293 292 289 289 290 291 292 294 294 295 296 298 299 301 305 306 309 311 311 313 312 312 312 313 314 315 316 316 316 315 316 317 318 318 318 318 317 315 315 315 315 315 315 316 316 316 316 316 317 313 320 320 321 322 322 323 323 324 324 323 323 323 323 322 319 316 315
298 296 300 296 288 288 287 284 275 276 275 270 274 278 280 285 290 291 291 287 290 287 285 286 290 289 290 291 292 292 291 289 290 291 291 291 292 292 293 294 293 293 293 293 295 297 300 301 303 308 311 311 310 309 307 308 311 314 314 314 314 315 317 318 318 316 314 315 315 315 315 316 314 313 312 313 314 314 315 317 318 319 319 320 321 321 321 322 322 322 322 321 320 318 317 316 313
293 298 298 295 292 291 287 288 282 281 275 271 273 274 280 286 290 292 294 295 291 290 288 289 289 290 291 291 292 292 292 292 291 291 292 293 292 291 291 291 291 292 292 292 292 292 297 301 302 303 303 303 303 306 306 309 309 311 312 312 313 315 315 316 314 314 314 315 315 314 314 312 314 312 313 313 312 312 312 313 313 315 316 318 318 319 320 320 320 320 319 317 315 312 310 311 313
289 294 292 291 289 289 289 286 283 282 273 272 268 274 279 282 287 292 295 296 296 294 294 293 292 292 291 292 292 291 291 291 291 292 293 293 292 291 291 289 290 289 288 289 292 294 295 295 299 300 304 302 303 305 305 309 308 309 310 311 310 308 309 310 311 311 312 312 312 310 313 312 306 309 309 309 311 312 313 314 314 313 315 315 316 316 316 316 316 315 314 313 312 311 311 310 307
295 295 293 294 290 287 287 286 285 278 276 275 271 280 278 283 289 294 294 296 295 294 293 294 293 294 295 294 291 289 290 290 291 292 291 291 290 290 289 288 287 288 290 290 290 291 291 292 294 294 295 299 301 302 304 306 304 304 304 304 304 304 308 307 311 309 309 310 309 309 307 302 305 308 304 308 307 310 310 312 313 313 312 313 314 316 314 312 313 314 314 311 308 307 307 307 306
Wind_Speed
5 2 1 1 3 3 2 6 1 3 3 0 0 1 2 1 1 1 1 3 1 2 2 1 2 3 2 2 7 4 0 5 4 7 4 1 1 3 4 6 5 5 5 4 3 4 4 6 9 11 12 11 12 11 9 8 9 9 9 7 10 11 10 10 11 12 13 11 11 12 13 14 15 14 13 13 13 13 14 14 14 14 14 15 14 15 15 15 15 16 15 15 15 15 15 15 15
4 2 3 1 1 1 1 1 4 2 6 2 1 1 1 2 1 1 1 2 2 2 1 8 8 11 11 11 8 3 3 2 1 1 1 1 3 2 4 7 7 8 5 4 4 4 4 5 9 11 12 12 12 11 10 9 9 8 8 8 8 7 10 10 10 12 10 10 12 12 13 14 15 15 14 13 14 15 14 13 13 14 15 14 13 14 14 14 14 14 14 14 15 15 15 16 16
2 3 2 3 3 4 2 4 0 1 5 1 2 4 1 2 4 3 2 4 5 6 4 7 5 3 2 1 3 1 1 2 1 1 0 0 7 3 3 5 5 6 7 4 4 4 3 4 9 11 12 12 11 11 9 9 10 10 10 9 9 8 8 9 11 11 10 11 12 13 13 14 15 15 14 12 12 13 13 14 14 15 15 14 14 14 14 14 14 14 14 14 14 14 16 16 16
1 3 1 2 2 4 1 3 4 6 4 5 0 2 2 5 5 4 2 4 6 5 1 1 4 3 3 6 2 2 2 0 1 3 3 5 4 5 4 6 6 5 5 4 4 4 3 4 7 10 11 12 12 11 11 10 10 9 8 9 9 9 8 9 11 11 11 10 12 12 14 15 14 16 14 14 14 12 11 13 14 13 12 13 13 13 13 13 13 14 13 13 13 14 14 15 15
1 1 2 3 3 2 2 1 4 3 2 4 4 3 2 4 6 4 2 2 4 2 0 2 3 4 0 4 1 1 4 1 2 3 2 1 3 7 6 5 6 6 5 4 4 3 3 4 7 9 11 12 12 12 12 11 11 11 10 9 9 9 10 9 10 11 11 10 12 14 14 14 15 15 14 14 15 13 14 13 13 13 12 13 13 12 12 12 13 13 12 12 13 13 14 14 15
4 2 3 3 1 2 5 2 2 1 5 4 2 4 4 5 4 5 2 2 3 3 2 1 4 4 2 1 1 1 2 3 3 1 3 3 9 8 8 7 6 6 5 4 3 3 3 5 9 9 10 12 13 11 10 10 11 12 11 11 10 9 10 11 10 11 11 10 11 13 13 14 14 15 15 14 14 12 11 12 12 12 13 12 12 12 12 12 12 12 12 12 13 13 13 13 14
1 3 4 4 2 4 3 3 2 3 2 6 3 3 7 5 5 3 4 2 0 2 0 2 4 5 3 1 1 0 0 2 2 2 4 6 8 9 8 7 7 6 5 4 3 3 3 7 9 8 8 8 12 11 10 10 11 11 11 12 12 10 11 11 10 11 12 11 11 12 12 12 13 14 14 14 14 13 13 13 13 13 12 12 12 12 12 12 12 12 11 11 12 13 13 13 13
1 1 2 2 1 3 2 1 2 3 1 5 2 4 5 5 4 3 2 3 2 1 1 3 1 5 1 3 2 2 5 0 2 4 7 8 9 8 8 8 8 6 6 4 3 3 5 7 8 8 8 10 11 11 10 10 8 9 9 8 10 10 10 10 10 11 11 11 12 12 11 13 13 13 13 14 12 12 11 12 12 12 12 11 11 11 11 11 11 11 11 11 12 12 12 12 12
4 5 0 4 1 3 2 1 2 2 4 1 2 3 2 4 4 4 1 0 0 1 3 1 2 2 2 1 0 2 3 2 3 8 10 9 10 9 7 8 9 7 7 5 4 3 4 6 9 9 9 9 9 9 9 11 9 8 9 11 9 10 11 11 11 10 10 10 11 11 12 12 13 13 13 13 12 12 12 12 12 11 12 11 11 10 10 10 10 10 10 10 11 11 11 11 11
2 1 1 2 2 0 1 1 1 2 1 2 4 4 4 3 3 0 4 1 2 3 1 0 0 3 3 3 1 1 0 1 7 7 7 9 9 8 9 9 9 10 9 6 4 4 3 5 9 9 9 9 9 9 10 9 11 10 9 11 11 9 9 10 11 10 10 10 10 10 11 11 11 12 13 13 13 12 12 11 11 11 11 11 10 10 9 9 9 9 10 10 9 10 10 10 10
1 4 2 2 3 1 0 2 2 3 0 2 2 4 2 3 3 3 0 3 1 2 1 1 4 4 3 1 2 2 1 2 10 9 6 8 8 8 7 7 8 9 9 7 5 5 4 4 9 10 9 9 9 9 8 7 11 10 9 10 11 11 10 10 10 10 11 10 10 11 11 11 11 12 12 12 12 12 11 11 11 10 10 10 10 9 9 8 8 9 9 9 9 9 9 9 9
1 0 1 2 1 3 2 2 1 2 3 1 2 1 2 4 2 3 1 5 0 2 3 4 3 4 4 1 1 2 1 3 7 6 7 7 8 7 7 5 7 7 10 8 6 5 5 5 6 8 10 10 9 9 7 7 10 9 7 9 11 11 11 11 10 10 11 10 10 10 11 11 11 12 12 11 8 10 10 10 10 10 10 9 9 8 7 7 7 8 8 8 8 8 8 8 8
2 1 4 2 1 1 1 2 3 0 1 3 3 1 2 4 5 6 3 3 1 3 1 4 7 3 3 3 2 0 2 6 3 6 7 7 7 6 6 6 7 8 8 8 7 6 6 5 6 6 7 10 9 7 8 8 6 5 5 8 9 8 9 9 9 9 10 11 9 9 9 8 10 10 10 9 8 10 9 7 8 9 9 8 8 7 6 6 6 6 6 6 7 7 7 7 8
2 4 4 3 2 3 3 1 0 4 3 3 2 0 2 2 4 6 8 5 1 1 2 4 6 5 2 1 1 3 6 6 3 5 5 6 6 7 8 7 7 8 8 7 8 6 5 5 6 5 6 6 4 6 8 9 7 5 5 6 6 8 7 7 6 6 7 10 9 7 7 8 9 8 7 6 7 9 7 7 7 8 8 8 7 6 6 6 5 5 5 5 5 6 7 7 7
1 2 3 4 1 1 2 4 7 4 5 3 2 2 1 3 3 3 6 7 1 1 0 1 3 1 4 7 5 9 9 8 6 6 7 6 7 8 9 7 7 8 7 7 7 7 6 6 6 5 5 5 4 4 4 7 8 6 6 5 5 6 7 7 9 9 9 8 8 7 7 8 8 8 8 9 9 9 8 7 6 7 8 7 6 5 4 4 4 3 3 3 4 5 5 6 7
3 4 2 2 1 2 2 1 1 4 5 4 3 2 3 1 1 4 3 2 2 2 1 3 1 1 2 10 6 11 9 7 6 7 9 8 7 8 9 9 8 9 7 7 7 6 6 6 5 5 5 5 4 4 4 4 7 8 7 7 6 6 8 10 9 8 8 8 8 7 8 7 7 6 9 7 9 8 7 5 6 5 6 6 5 4 3 3 3 2 2 2 3 4 5 6 6
2 3 0 2 2 2 2 2 5 4 3 3 3 2 3 2 0 0 0 0 9 2 1 1 1 1 5 5 2 7 8 8 7 9 9 7 8 7 6 7 7 8 6 7 7 6 6 7 5 5 4 5 4 4 4 4 4 7 6 8 8 7 8 9 9 9 8 7 7 7 6 5 4 4 5 4 6 4 6 7 5 5 6 5 4 3 3 2 1 1 0 1 2 3 5 5 5
1 2 3 2 3 3 4 5 8 2 5 4 4 4 6 2 1 1 1 6 3 1 2 4 2 2 2 3 1 9 10 11 9 12 9 8 7 7 7 7 8 8 9 8 7 6 6 6 7 5 4 4 4 4 4 3 3 4 4 3 4 5 6 6 6 5 5 4 7 5 4 4 3 3 4 5 3 3 3 4 5 5 6 3 3 2 2 1 1 1 2 2 2 4 6 2 3
2 2 2 7 4 4 6 3 5 3 3 4 3 1 4 6 6 2 3 1 0 2 0 2 1 3 3 3 7 11 12 11 11 11 12 11 9 10 9 6 8 8 9 8 7 8 7 7 7 7 5 4 4 4 4 3 3 3 3 3 3 5 4 4 4 4 4 4 4 3 3 4 3 3 3 3 3 4 3 2 3 6 6 5 3 2 1 2 3 3 3 4 5 6 2 2 3
1 4 4 6 4 2 4 3 4 3 4 5 3 1 1 2 2 0 3 5 0 6 4 1 1 2 1 4 7 9 11 10 10 11 13 11 9 10 9 9 8 9 8 8 6 6 6 7 8 8 7 6 5 4 4 4 3 3 3 3 3 4 4 4 4 4 4 4 4 4 4 3 4 3 4 7 6 4 3 2 2 3 4 3 2 1 3 4 5 6 6 5 4 2 2 2 2
1 2 4 4 3 3 2 4 3 4 5 5 4 1 2 1 2 1 3 4 4 6 6 8 9 7 7 6 9 9 11 11 9 10 11 11 9 8 9 8 7 6 5 4 5 7 7 6 7 8 8 7 6 6 6 6 5 4 3 3 4 4 4 3 4 4 4 4 4 4 3 3 3 3 3 3 3 4 3 2 2 2 1 2 0 1 1 2 2 2 3 2 1 2 2 3 3
4 5 2 3 1 0 3 3 3 3 3 7 3 5 4 1 0 2 8 7 8 9 8 8 7 11 11 11 10 8 10 11 11 10 11 13 13 11 8 7 5 5 3 5 7 7 8 7 7 6 6 7 7 7 7 6 6 6 5 4 4 3 4 4 4 4 5 4 4 4 4 4 3 3 3 4 4 4 4 3 3 3 3 3 2 2 2 2 2 2 2 3 2 1 2 4 3
4 2 1 3 2 0 0 1 2 3 3 5 5 3 3 2 1 2 7 9 4 6 5 10 7 14 13 12 11 10 10 12 12 13 12 11 11 10 10 10 10 9 8 8 7 6 7 7 7 7 8 7 7 7 6 6 7 6 6 6 5 5 4 5 5 5 5 4 4 4 5 4 4 4 3 3 4 4 4 4 4 3 3 3 3 3 3 3 2 2 2 3 3 3 3 3 3
2 3 0 2 3 3 2 1 3 1 8 5 3 2 3 3 3 1 4 7 8 4 2 3 5 5 8 11 13 16 15 15 16 14 14 14 13 13 12 13 11 8 9 9 8 7 7 9 8 7 8 9 8 7 7 8 9 7 7 7 6 6 6 6 6 6 5 6 5 5 5 5 6 4 5 5 5 3 4 4 3 3 3 3 3 3 3 3 3 3 2 3 4 3 3 4 3
4 3 1 1 2 2 1 2 1 2 1 0 3 3 4 5 2 1 5 9 8 4 2 6 8 8 8 11 13 11 11 10 10 10 7 6 8 7 5 5 5 7 10 10 9 10 11 10 10 10 8 9 8 8 8 7 8 8 7 7 8 7 7 7 7 6 6 5 5 5 5 5 4 5 6 7 5 4 4 4 4 4 3 2 2 4 3 4 4 3 3 4 3 4 3 5 4
4 6 1 0 1 1 0 0 2 2 1 1 2 2 3 4 0 3 8 7 3 1 3 6 8 9 10 11 13 13 12 14 12 10 12 8 6 7 8 8 7 8 10 10 10 11 10 10 11 12 10 10 8 8 7 7 8 8 8 8 8 7 7 7 6 6 6 5 5 5 6 5 6 6 6 4 5 5 4 3 4 4 4 4 3 4 4 4 5 3 3 3 4 4 4 5 3
4 5 3 2 2 1 0 2 0 0 0 1 1 1 2 2 3 7 3 7 3 3 4 4 10 11 12 10 11 11 13 14 15 12 6 6 8 10 10 9 10 11 9 10 10 9 8 9 10 10 10 9 8 9 8 8 7 8 8 7 7 7 7 6 6 6 5 5 6 5 5 6 5 5 5 5 4 4 4 4 4 3 4 4 4 5 3 5 4 5 5 5 5 5 5 5 3
4 5 2 1 2 1 0 0 2 1 2 3 3 4 2 3 1 8 5 1 5 6 4 6 7 10 11 11 11 10 11 12 8 7 13 12 12 11 12 12 12 11 11 11 9 8 8 11 11 11 11 10 10 9 8 8 8 8 7 7 7 7 6 6 6 6 6 5 5 5 5 6 5 5 5 5 5 5 5 5 4 3 5 5 5 5 5 5 5 5 4 4 4 3 5 4 3
3 6 6 3 2 3 4 4 2 3 2 3 3 3 8 4 8 6 8 2 3 6 7 7 9 9 9 9 9 8 12 9 8 10 13 13 10 10 13 11 11 12 9 11 11 9 10 11 11 10 10 10 11 10 9 8 7 7 7 8 7 7 7 6 6 7 7 6 5 5 6 6 5 6 6 6 5 5 6 5 5 5 6 5 5 5 4 4 3 4 5 3 3 2 3 6 3
2 1 2 0 2 6 8 2 3 4 2 5 3 6 12 11 10 8 6 5 3 4 5 7 8 8 7 8 9 10 8 6 10 13 12 11 11 11 13 11 12 11 9 6 6 9 8 6 6 6 7 10 11 9 8 8 8 7 7 7 7 7 6 7 7 6 7 7 6 6 6 6 6 6 6 6 6 6 6 6 6 6 6 5 4 4 5 5 5 4 6 3 5 4 5 5 3
4 1 2 3 2 7 3 6 5 4 2 5 1 7 13 2 6 8 6 7 10 9 9 8 8 8 8 8 9 10 11 11 14 14 12 11 10 10 12 10 11 11 8 8 10 10 8 8 7 6 7 9 9 10 10 9 7 7 7 7 7 7 7 7 7 7 7 7 6 6 6 6 6 6 6 7 7 6 6 6 6 7 5 4 5 5 5 6 4 6 4 4 4 4 4 4 4
2 6 5 1 6 4 2 3 10 12 1 4 4 8 14 4 5 4 3 7 6 9 9 10 10 9 9 9 10 10 12 10 11 10 10 10 10 10 11 12 11 10 11 10 9 8 9 8 8 9 8 10 10 10 9 9 8 8 7 7 7 7 7 8 8 7 7 6 6 6 6 7 7 7 7 6 7 7 6 6 7 6 5 5 5 5 4 6 5 5 5 5 5 6 4 5 3
3 8 3 9 5 5 6 3 7 11 4 1 10 8 3 1 3 2 1 5 7 8 8 7 9 10 10 10 10 10 9 8 9 11 12 11 11 11 10 11 11 12 11 10 10 9 9 10 10 11 11 12 11 10 9 7 7 7 7 7 8 7 8 7 7 6 6 6 6 7 7 7 7 8 7 7 7 7 6 6 6 6 5 5 5 5 5 6 5 5 5 5 5 6 5 5 6
7 2 4 4 10 3 5 3 2 5 7 7 6 10 10 2 2 2 2 4 5 6 8 7 8 8 9 8 8 9 10 10 12 14 15 13 11 12 11 11 11 10 10 11 11 12 12 11 10 11 10 10 10 11 10 9 8 7 7 7 6 7 7 6 6 6 6 6 6 7 7 7 7 8 8 7 7 7 6 7 6 6 5 6 6 5 6 5 4 5 6 5 5 5 6 6 6
9 5 4 6 2 5 8 4 3 9 6 8 6 11 16 13 9 7 3 3 6 7 9 9 9 9 9 8 9 10 11 11 15 14 14 13 12 11 10 10 10 10 9 10 10 10 9 9 9 9 9 9 9 9 8 8 6 6 5 5 5 6 5 5 6 6 6 6 7 7 7 7 8 8 8 7 7 7 7 7 7 7 6 6 6 6 5 5 5 5 6 7 4 5 6 5 6
15 14 12 5 7 6 9 6 2 11 7 9 9 13 16 14 11 12 11 4 4 8 5 6 7 6 7 9 10 10 11 14 14 10 9 9 10 10 10 9 9 9 9 9 10 10 11 9 8 8 9 9 8 7 7 7 6 7 7 5 6 6 5 6 6 7 7 8 7 7 8 8 7 8 8 7 7 8 7 7 8 7 6 6 7 7 7 7 8 7 7 7 6 4 4 5 3
10 10 8 7 7 4 1 4 2 3 3 11 14 16 14 10 11 13 12 0 3 7 9 8 7 8 9 10 12 13 13 17 11 7 6 9 11 10 9 8 8 9 10 10 11 11 11 11 10 12 10 9 9 8 8 8 8 6 5 9 9 7 8 7 8 8 8 8 8 8 8 8 7 7 7 7 8 8 7 7 7 7 6 7 8 9 9 8 7 7 6 5 7 6 4 3 3
9 10 7 9 7 9 3 4 1 3 5 5 6 9 12 12 12 11 5 4 10 11 10 9 10 9 9 11 14 14 15 7 4 5 8 7 8 10 9 9 8 11 11 11 13 13 11 11 12 12 9 10 11 11 9 9 9 9 9 9 8 8 8 8 9 8 9 8 8 8 8 7 8 8 7 7 7 7 8 7 8 9 7 8 8 7 6 6 5 5 4 4 4 7 5 4 4
8 10 8 6 8 1 2 1 2 1 2 8 0 6 12 11 12 12 9 13 13 11 10 12 9 10 10 11 12 12 9 11 6 10 7 8 10 10 10 10 11 13 12 13 13 11 12 12 12 11 11 11 11 11 10 10 8 8 8 6 8 6 6 7 7 7 6 7 8 8 7 7 8 8 8 7 7 8 8 8 9 8 8 7 7 7 6 7 6 7 6 7 4 2 4 1 4
8 7 8 11 4 7 5 3 1 2 4 1 0 4 10 7 8 14 13 11 11 9 11 13 11 13 13 14 12 11 12 13 11 11 12 10 10 10 10 11 12 10 10 11 12 13 12 12 12 12 11 11 10 11 11 10 9 9 8 6 5 7 6 6 6 6 6 6 9 8 8 8 8 8 8 8 8 8 9 9 8 7 8 7 7 8 6 7 6 6 6 7 5 5 3 5 4
5 9 7 6 5 4 5 2 1 1 1 1 3 7 11 8 11 10 10 8 9 11 9 9 10 11 11 7 5 11 14 12 12 11 10 8 8 11 13 14 11 11 13 13 13 13 11 14 14 13 12 12 11 11 12 9 7 5 5 3 1 3 2 3 4 8 9 8 7 9 10 7 8 9 8 9 9 9 9 8 8 8 7 6 6 7 7 8 7 6 7 7 8 9 7 4 3
7 6 8 7 5 5 2 3 4 2 3 1 1 3 7 4 6 12 6 5 5 4 6 12 15 13 8 10 13 9 8 10 13 14 14 13 13 11 11 11 11 12 13 14 13 14 12 12 12 12 11 11 12 11 11 10 9 9 8 8 8 7 8 8 11 13 9 9 11 6 6 8 9 9 8 9 9 8 8 8 8 8 7 7 7 8 7 5 6 8 8 8 8 8 8 4 5
8 7 7 4 5 6 6 5 5 1 5 2 1 8 10 4 6 5 4 3 11 4 6 13 12 11 9 12 11 11 12 11 9 7 8 10 11 10 12 13 13 14 15 13 11 12 13 13 12 13 12 11 10 10 11 10 9 9 12 12 11 11 12 11 9 7 7 7 6 7 7 6 8 9 9 8 8 8 8 8 8 8 8 7 7 7 8 8 7 7 6 7 8 7 5 8 9
7 1 12 5 5 8 6 7 6 1 1 1 3 2 4 10 11 4 6 7 10 9 11 14 11 9 10 11 13 13 13 11 11 12 12 12 12 14 16 16 14 16 15 11 12 11 14 15 13 13 11 10 10 9 11 12 12 11 11 11 11 12 13 13 9 8 5 5 7 8 6 7 7 8 9 8 9 9 9 9 8 8 8 8 7 8 9 7 6 5 7 8 8 7 9 9 9
2 1 10 7 8 6 5 4 3 1 1 4 1 0 1 7 8 4 1 5 9 13 14 12 11 12 12 12 12 12 13 12 12 13 13 14 13 14 13 13 15 15 13 13 13 14 14 11 11 9 11 11 10 11 12 13 13 12 12 11 12 11 11 10 4 5 6 6 7 5 7 7 7 7 8 8 8 9 9 9 9 9 9 8 8 8 7 7 7 7 7 7 8 9 9 11 10
2 6 11 8 7 6 3 3 3 0 1 8 5 1 2 12 5 4 0 3 14 13 11 11 10 11 10 10 10 9 7 7 9 13 13 13 13 14 14 14 12 14 12 12 10 8 8 8 10 11 12 10 10 11 12 13 13 11 11 12 14 13 10 7 4 6 6 5 8 7 6 6 6 6 6 7 7 8 8 8 9 10 10 9 8 8 8 8 8 9 9 9 9 10 9 9 11
6 7 10 7 7 4 3 4 2 3 6 6 7 4 3 7 4 8 6 9 6 6 7 8 6 4 4 6 7 8 8 8 9 11 12 13 11 12 11 13 13 9 8 7 8 8 8 9 11 12 13 10 10 12 13 14 12 12 13 13 15 15 11 8 7 8 6 6 8 6 6 5 5 6 5 6 7 7 8 8 9 9 9 8 8 9 9 10 10 10 9 10 11 11 9 9 10
9 4 5 8 4 2 2 1 1 4 6 2 8 8 5 6 6 5 6 4 4 5 7 8 6 7 6 5 6 7 7 8 8 8 10 10 7 7 6 9 9 8 6 7 7 7 8 9 9 12 11 12 11 12 12 13 12 13 13 13 14 14 10 10 12 12 9 10 8 7 5 5 6 6 6 6 6 6 7 7 8 9 9 9 10 9 9 9 9 9 9 10 10 12 10 9 9
5 9 7 10 3 4 4 2 8 10 5 1 3 7 1 14 19 2 6 8 9 7 9 10 8 7 7 6 6 6 5 5 7 9 9 9 10 10 9 10 8 8 9 10 11 10 10 9 11 13 14 12 12 10 12 13 12 13 13 14 14 11 10 11 11 10 8 9 7 7 6 8 6 7 7 8 8 8 8 7 7 8 8 8 9 9 9 9 9 9 10 10 10 10 11 12 10
10 12 12 10 6 7 10 5 2 2 2 2 6 1 6 6 13 10 20 20 14 9 8 8 8 9 9 9 8 6 5 6 8 8 9 9 10 10 10 11 11 11 11 12 11 10 10 10 11 13 16 11 10 10 11 11 14 14 12 13 12 10 11 11 11 10 8 8 7 8 8 8 8 9 7 9 8 9 8 9 9 8 8 8 8 9 9 9 9 9 9 9 9 8 9 11 12
13 7 12 8 6 4 7 5 7 4 3 0 3 3 8 5 7 1 5 5 7 8 6 6 7 8 8 6 5 7 9 9 8 7 9 10 11 11 11 11 10 10 10 11 9 10 9 10 10 13 13 10 11 13 11 13 13 12 11 11 11 10 11 9 10 9 8 8 7 8 8 7 8 7 8 8 7 8 9 9 10 10 9 9 9 9 9 9 8 7 7 8 9 8 8 8 9
6 4 3 2 9 4 2 1 4 3 4 1 3 8 2 8 6 15 9 7 9 9 8 6 9 7 5 7 8 9 9 9 5 7 8 8 7 6 6 6 7 7 8 8 8 8 9 11 11 14 15 13 12 12 12 13 12 9 10 11 12 10 8 8 8 7 7 7 8 9 9 8 8 7 7 6 7 8 9 9 9 10 10 9 9 9 9 8 8 8 8 8 9 8 11 13 9
7 6 11 8 3 8 6 3 2 4 3 11 2 8 7 8 16 17 20 14 13 6 6 5 9 8 5 8 8 8 8 7 6 7 7 7 5 6 7 8 7 7 7 9 11 11 13 12 11 12 12 8 9 10 11 10 10 10 12 11 9 9 10 11 10 9 9 8 8 8 8 8 7 6 6 7 8 8 8 8 9 9 9 9 9 9 9 9 9 8 8 9 10 7 7 7 6
7 9 8 4 2 4 6 4 2 1 6 6 3 14 6 2 14 2 3 7 16 7 7 7 7 6 7 10 7 8 8 7 4 4 5 5 5 7 7 6 7 9 10 9 10 8 8 9 8 10 8 9 8 9 10 10 10 10 9 9 9 10 9 9 9 10 8 7 7 7 6 6 7 8 8 7 7 7 7 8 8 8 8 8 9 9 9 9 9 9 9 10 10 9 7 5 5
11 10 5 10 4 7 2 6 5 5 6 3 4 1 6 11 15 3 7 4 7 6 4 4 7 7 9 8 9 7 7 5 5 5 5 6 7 8 7 7 5 5 5 5 5 4 5 5 6 7 10 10 8 7 6 6 6 7 7 8 8 8 9 10 10 8 6 8 9 8 8 8 6 6 7 7 7 7 7 7 7 8 7 8 8 8 8 8 8 9 9 9 7 7 7 7 5
3 7 9 2 1 4 6 8 1 3 7 1 6 2 10 11 9 8 16 12 8 7 5 5 8 7 7 8 8 8 8 7 6 6 7 7 7 5 4 5 5 5 5 4 4 4 6 7 7 7 6 5 5 7 8 8 8 7 7 6 8 9 9 8 7 7 8 9 8 7 8 6 8 7 7 6 6 6 6 7 6 6 7 7 7 7 7 8 7 8 8 7 6 5 4 4 5
6 9 8 2 2 2 3 1 5 6 5 5 2 5 8 8 7 11 18 16 14 10 10 8 7 7 9 9 9 6 7 6 7 8 8 7 5 2 2 1 2 2 2 4 5 7 7 5 7 7 9 8 8 8 8 9 8 9 9 10 9 7 7 5 6 7 8 7 6 7 7 7 4 5 5 6 6 7 7 7 7 7 7 7 7 7 6 6 7 7 6 6 6 6 6 6 4
14 14 13 13 11 7 10 11 2 3 3 6 6 15 0 5 3 12 11 13 11 9 9 11 9 10 11 9 8 7 6 8 8 9 6 5 3 2 0 1 1 2 3 4 4 3 4 5 6 5 5 7 8 9 10 9 7 7 8 7 6 4 5 5 7 6 7 7 6 6 5 3 5 6 4 6 6 6 6 6 6 6 6 6 6 6 6 6 7 8 8 6 5 6 6 6 5
Wind_Direction
293 13 42 138 67 105 55 359 134 316 63 345 24 24 183 360 215 67 186 335 37 334 315 43 61 58 189 193 151 146 219 136 200 131 215 231 296 132 120 125 117 106 114 125 127 124 134 145 138 123 123 122 119 115 118 117 110 103 97 109 118 114 111 111 106 104 104 108 106 106 111 107 103 101 100 99 100 96 90 91 92 91 88 86 87 87 86 90 97 99 94 85 76 73 76 85 94
281 7 53 90 54 57 240 118 94 357 38 58 226 102 232 287 80 196 185 152 206 112 73 83 72 80 76 92 116 141 25 16 223 184 279 263 77 73 149 138 135 129 124 120 124 128 135 150 134 126 123 124 126 126 123 121 122 126 119 103 103 120 124 125 117 110 107 110 110 114 113 109 109 107 105 106 109 107 108 105 94 93 93 92 86 88 91 95 99 99 91 83 77 74 76 85 91
312 22 70 36 36 73 81 38 266 38 102 143 269 204 344 129 165 219 230 152 143 149 150 102 103 77 66 81 28 29 221 319 59 59 107 163 127 234 165 130 124 121 123 123 125 129 137 152 136 130 124 124 126 126 126 128 121 104 107 122 130 125 123 131 119 115 117 112 114 119 120 119 116 112 108 105 100 95 92 95 100 94 89 90 96 93 93 99 103 100 91 83 78 76 78 82 87
75 32 142 80 274 32 56 28 86 127 131 202 304 272 181 164 193 178 187 155 154 152 190 30 49 293 113 66 138 104 54 52 215 160 144 198 204 150 155 126 117 112 108 118 126 133 137 148 141 129 127 127 127 126 128 126 121 115 130 135 122 116 128 126 119 117 114 111 112 122 118 113 115 111 112 112 106 104 101 93 89 91 98 98 95 94 95 100 105 102 92 84 80 73 75 78 82
61 343 80 102 101 4 96 93 134 102 144 199 176 267 244 208 172 175 199 236 259 222 255 139 74 338 39 125 126 153 212 116 132 187 151 209 147 142 134 124 119 117 119 122 127 137 146 135 137 126 133 132 130 133 136 135 136 136 137 125 127 133 137 127 124 119 117 122 111 113 118 113 108 108 107 110 109 109 107 102 100 99 99 98 101 102 102 103 106 104 94 87 80 73 73 75 80
61 32 2 79 45 173 51 53 37 192 218 154 135 231 203 201 186 184 170 236 252 232 217 85 162 190 16 307 173 117 180 126 189 221 149 200 145 142 138 128 119 121 122 121 134 139 137 130 122 131 138 137 133 133 133 140 139 137 136 133 128 143 134 124 123 121 122 119 118 113 113 118 118 115 116 110 107 107 103 104 106 107 105 101 97 97 100 104 107 105 97 88 80 75 72 73 77
317 42 357 24 18 52 157 129 222 198 275 166 206 194 180 192 210 152 165 149 200 61 302 157 129 99 66 307 22 287 216 216 123 201 157 155 137 141 139 132 124 127 132 134 141 139 138 131 128 134 139 136 132 135 142 137 132 135 133 133 133 140 133 128 131 129 126 122 115 116 120 117 115 116 117 113 113 115 115 111 110 109 110 112 107 105 106 107 107 102 95 85 79 74 72 72 73
65 122 328 96 279 41 45 131 243 156 288 175 239 174 184 189 169 163 173 111 206 110 11 140 151 99 256 9 177 267 348 259 212 131 122 135 140 146 141 139 131 135 138 139 147 144 146 136 134 133 137 131 134 142 139 136 129 136 122 127 137 128 112 119 119 119 123 126 117 117 119 121 122 122 120 117 116 113 114 114 110 109 105 101 108 107 105 106 103 100 93 86 78 74 73 71 72
356 87 324 69 45 26 44 302 279 235 287 258 255 291 210 176 158 142 119 260 63 90 151 240 277 80 242 38 215 273 312 355 112 123 133 140 148 153 148 146 143 144 148 141 149 152 139 143 136 137 131 133 139 138 132 137 140 146 144 146 150 127 124 115 116 125 125 126 130 121 127 127 127 126 124 122 123 122 121 121 119 117 114 114 108 109 104 100 97 93 90 84 79 76 72 71 70
37 38 299 119 132 318 14 295 93 190 232 248 179 204 177 169 184 146 147 93 157 118 287 318 82 115 143 145 319 336 288 98 121 107 136 150 153 151 154 155 148 147 153 150 155 151 142 144 138 134 136 138 136 133 135 147 149 151 153 150 145 131 129 124 130 137 135 137 131 132 127 129 131 130 128 125 125 124 123 122 121 123 121 117 113 104 101 97 96 94 91 86 83 78 75 74 72
319 12 130 76 29 70 26 277 263 315 303 338 291 255 225 133 133 121 61 155 43 160 223 130 37 115 98 253 209 250 272 165 135 154 156 153 151 153 154 152 149 149 155 153 155 153 146 145 140 136 138 137 137 140 152 155 147 151 155 149 136 135 140 138 139 146 147 141 140 139 137 136 132 128 125 125 125 126 125 124 122 122 122 120 115 110 98 91 90 91 89 88 87 87 82 78 75
306 39 15 107 169 155 219 167 258 264 300 346 252 172 204 158 124 117 158 129 207 143 194 148 191 149 70 39 295 331 44 212 159 143 146 150 155 154 147 146 146 153 153 153 150 155 142 149 139 136 136 140 146 150 150 144 152 160 165 148 148 147 147 148 147 147 150 146 124 133 139 136 137 133 127 123 118 121 124 125 125 126 123 117 110 103 98 94 91 90 90 86 86 86 82 77 71
120 93 94 97 220 150 161 119 208 262 344 264 195 235 124 129 188 174 163 96 118 135 285 215 134 82 123 172 268 250 186 217 169 134 143 151 152 140 136 141 154 149 156 150 151 152 145 149 136 135 141 144 149 143 142 136 131 134 141 141 145 150 149 149 148 154 157 137 120 130 131 127 135 132 126 125 124 128 126 121 121 122 119 114 114 112 110 103 99 93 85 74 68 68 68 63 53
125 179 133 195 66 133 140 208 23 148 249 240 264 258 149 144 240 163 129 121 205 154 280 168 135 132 88 47 280 216 220 204 161 141 137 139 137 139 143 145 150 154 158 156 153 152 149 141 133 135 134 136 142 135 140 139 140 127 105 93 134 147 145 141 140 132 94 93 96 98 113 117 116 123 115 108 104 101 87 95 107 119 120 117 117 113 109 111 108 100 88 77 66 57 54 47 38
145 128 79 113 121 95 234 134 193 158 223 188 209 134 121 276 123 160 155 136 267 209 328 17 176 92 217 163 254 212 196 190 152 143 132 127 134 143 146 148 151 160 162 162 152 151 151 137 138 136 132 131 133 129 136 140 143 135 116 115 107 124 129 108 102 98 110 103 101 95 97 98 100 98 100 97 93 95 91 89 107 123 127 121 119 120 119 117 110 99 85 76 61 50 45 37 26
147 85 78 127 191 164 259 141 57 119 241 179 253 122 101 337 206 131 259 150 167 347 129 209 112 187 162 176 220 193 175 149 145 135 128 131 135 142 148 151 157 167 166 162 158 154 150 140 140 132 134 133 136 135 138 139 143 134 134 128 125 125 129 128 120 112 108 113 108 103 97 92 88 88 92 93 97 99 98 103 108 120 130 138 137 135 132 120 111 106 90 59 47 42 29 23 11
51 79 313 43 224 166 226 159 145 190 241 237 276 168 148 192 266 226 307 151 129 178 31 277 215 6 182 207 240 152 134 119 128 132 130 135 142 146 151 159 162 169 168 166 164 159 154 144 142 131 140 138 138 137 137 138 143 135 138 139 136 136 137 136 131 124 119 118 118 113 102 99 101 99 88 95 92 89 117 120 123 131 145 151 156 148 139 136 122 120 143 342 352 32 28 4 356
78 161 119 209 202 148 206 172 188 206 140 215 195 205 124 142 177 177 59 44 51 39 79 314 335 341 256 271 166 136 128 130 144 141 151 141 153 152 162 167 168 174 171 168 169 159 154 149 148 141 137 136 140 136 139 115 116 129 127 134 134 136 133 128 128 133 132 133 131 128 125 122 122 114 120 120 110 111 95 128 138 141 145 138 157 172 172 219 268 229 280 277 317 11 358 358 340
102 102 134 229 180 233 162 201 182 122 232 160 189 156 162 189 141 220 124 226 127 135 328 10 326 340 18 72 123 131 137 143 153 154 159 162 169 165 168 167 177 168 180 178 172 170 169 154 153 150 153 147 143 143 150 126 132 116 123 126 127 135 142 137 143 141 144 151 151 145 143 140 140 136 145 148 139 118 122 125 132 139 146 152 177 173 311 296 296 294 307 348 357 341 346 350 319
224 119 206 236 207 224 221 181 195 201 138 143 161 194 149 204 129 84 177 173 40 186 196 323 260 243 179 146 141 147 149 156 160 159 166 171 174 168 166 173 181 185 180 184 172 172 174 170 164 160 159 156 152 150 144 151 152 143 141 147 143 141 148 158 158 159 163 164 160 157 152 143 145 141 153 152 141 148 142 111 94 99 114 119 100 20 285 298 303 310 319 325 337 344 329 306 308
229 93 193 228 238 124 240 183 223 207 153 157 143 68 153 261 220 159 160 117 267 263 233 172 201 193 182 170 159 159 160 164 171 169 169 175 180 180 181 178 181 175 177 165 176 184 185 180 169 166 159 161 159 157 155 164 165 155 157 163 162 157 166 176 178 175 176 175 171 164 161 147 149 154 159 164 174 163 170 172 187 186 175 200 202 247 280 285 310 315 323 331 271 313 325 296 314
113 209 193 186 186 102 205 193 219 157 205 116 124 126 191 42 78 142 156 173 215 213 224 218 197 165 161 169 175 166 172 173 179 180 182 179 180 183 176 173 169 170 161 189 191 190 191 189 178 166 163 166 167 163 169 168 163 173 173 176 174 181 175 185 193 194 189 189 182 172 154 152 162 169 180 189 192 189 189 195 200 202 205 215 206 238 252 266 280 277 290 295 284 270 281 293 298
185 289 236 186 197 154 251 147 252 163 125 132 139 191 94 123 247 184 185 200 233 221 207 199 177 175 176 159 157 173 177 185 187 190 186 188 188 185 184 179 175 181 188 200 191 195 190 192 190 170 172 170 176 168 165 164 180 180 183 173 178 193 189 189 203 202 202 194 194 180 167 177 182 189 191 198 204 198 200 200 199 203 202 211 210 218 239 247 245 249 249 263 288 302 294 287 286
117 210 138 244 150 215 170 140 89 134 121 177 187 92 162 136 210 138 196 247 245 274 275 200 159 140 143 156 178 178 185 186 194 194 192 193 190 192 185 181 185 178 186 193 194 194 191 197 193 184 181 175 178 175 169 175 180 183 188 184 194 191 186 200 203 201 198 201 198 195 190 181 188 192 204 206 214 206 213 206 200 201 211 215 208 214 228 240 241 244 260 282 288 287 282 292 287
172 253 190 275 127 239 349 141 108 97 60 24 104 129 221 171 179 97 246 240 255 276 59 123 135 147 165 171 180 188 191 198 200 201 203 207 200 191 196 214 195 178 187 192 193 194 200 195 190 194 190 186 179 175 179 178 182 185 187 185 193 192 196 200 203 202 199 203 201 202 193 192 198 198 205 216 211 219 215 207 199 211 213 218 203 219 219 233 243 239 246 259 273 282 287 280 280
193 210 107 321 237 47 90 44 139 102 123 80 65 275 288 248 249 254 237 253 248 132 96 127 138 157 177 188 187 186 193 199 200 198 201 197 192 189 204 196 194 199 199 192 191 202 199 193 194 194 193 189 183 179 187 184 186 187 191 192 194 192 202 200 201 209 207 195 207 205 205 203 199 200 210 211 198 222 219 216 209 216 222 223 209 224 217 224 234 238 249 256 262 266 272 257 251
174 187 181 164 263 132 11 187 323 314 215 191 176 295 271 19 144 267 277 230 104 88 123 155 154 179 191 191 196 198 193 199 200 196 188 198 200 200 204 199 197 206 198 198 198 202 196 192 200 195 194 191 184 190 189 194 186 195 194 193 193 198 200 200 206 211 212 207 209 202 207 210 209 210 212 208 209 224 223 213 218 207 228 225 212 230 213 219 226 226 225 226 232 240 244 250 238
124 158 97 95 331 296 127 41 278 354 282 170 163 243 276 286 86 227 240 332 172 142 158 174 186 190 195 199 199 203 206 208 195 177 200 197 205 201 205 201 202 205 202 204 201 198 188 197 201 196 193 190 190 194 189 193 196 198 195 194 202 200 195 203 207 212 218 215 211 207 206 209 208 216 210 207 204 216 224 221 225 208 231 230 217 229 228 228 226 236 239 232 235 229 256 276 260
147 134 203 224 5 274 233 199 245 148 269 144 144 348 281 210 221 224 236 119 175 159 173 190 199 204 201 203 205 209 214 205 192 200 209 208 205 204 208 203 202 209 211 203 202 193 196 198 199 199 190 189 193 195 194 198 196 197 196 201 203 197 198 202 208 211 217 216 209 209 209 207 203 205 207 205 203 211 214 216 220 220 226 222 219 224 231 236 243 258 264 256 275 274 276 272 283
81 94 152 319 302 274 237 173 121 127 244 155 150 274 241 234 230 233 222 152 121 137 193 204 208 206 206 204 209 216 220 211 209 213 211 208 204 205 212 207 201 203 205 210 203 208 201 200 197 190 189 191 196 197 194 195 198 200 200 202 201 197 201 203 210 211 214 215 208 207 208 205 202 205 199 206 202 210 216 214 218 227 228 216 216 215 223 228 238 246 255 274 262 245 241 251 265
156 193 84 197 120 252 260 181 161 168 203 166 136 243 258 238 254 238 217 181 167 193 206 206 211 212 209 208 212 216 219 212 214 216 216 211 209 209 212 210 207 203 196 202 206 206 198 199 190 195 187 195 194 197 196 199 195 197 199 202 202 199 202 206 209 210 210 213 206 211 206 203 205 205 205 202 207 208 214 219 221 228 222 205 207 214 213 229 224 235 235 237 257 253 251 265 262
152 106 222 316 193 275 302 222 160 195 213 155 115 250 262 240 247 240 211 178 190 209 204 208 209 211 211 210 214 219 223 217 227 231 225 219 212 213 210 212 206 204 203 203 205 200 205 203 195 199 187 194 196 198 198 198 196 197 198 200 200 203 205 209 210 209 208 208 204 208 208 208 207 209 206 204 211 210 214 219 224 229 221 203 214 220 211 228 225 234 231 209 235 255 255 269 254
219 187 133 207 210 246 338 225 194 193 122 257 184 240 2 321 293 320 305 176 187 213 226 220 222 219 215 215 215 221 227 228 229 231 227 216 217 214 212 213 209 206 201 198 200 200 207 206 202 203 197 197 197 199 198 200 196 198 197 198 202 200 207 211 212 205 204 208 206 209 209 210 213 212 209 204 207 211 215 222 230 224 217 208 213 217 216 224 218 225 240 220 211 240 237 253 276
188 146 190 209 208 168 234 297 252 184 153 200 232 245 239 219 248 31 31 166 174 217 236 234 229 230 225 223 223 225 224 223 225 223 225 215 216 214 213 210 210 207 205 202 199 198 203 202 203 204 204 201 200 198 199 200 202 199 201 205 203 206 210 212 213 203 210 210 206 214 211 212 214 215 213 207 209 215 214 218 228 223 212 213 217 213 223 219 221 215 239 227 210 222 239 238 254
158 167 239 258 256 193 211 168 239 149 209 200 218 244 252 250 272 279 208 168 172 215 224 232 231 229 232 227 227 227 225 225 231 224 220 215 215 216 214 211 208 208 208 204 201 203 202 203 201 204 203 200 203 201 201 200 197 201 204 208 214 218 219 219 211 211 215 214 211 213 212 214 216 216 214 208 207 214 216 219 224 221 208 213 216 219 226 223 222 220 222 240 214 216 222 227 233
176 181 203 186 182 213 219 228 263 166 175 217 215 231 244 246 253 262 262 163 192 238 240 249 246 240 240 235 234 230 227 232 235 228 219 215 213 211 211 208 208 207 208 204 204 202 204 202 199 202 204 199 198 199 190 197 194 198 205 218 230 221 219 220 220 220 215 220 218 212 213 216 216 216 216 209 209 212 217 218 221 220 211 208 215 217 223 216 216 217 227 224 235 246 238 244 229
177 183 190 210 208 263 305 240 238 201 100 215 215 231 245 256 242 245 254 57 256 252 251 240 236 230 228 231 232 231 229 230 232 228 215 211 212 211 210 203 207 208 210 206 204 207 203 200 191 206 200 195 192 191 193 193 198 204 219 218 222 212 214 215 222 221 221 224 220 219 218 217 216 215 217 211 214 215 219 222 221 226 214 211 215 221 219 219 215 214 223 211 222 239 259 219 215
166 184 189 213 184 231 236 211 252 232 172 265 235 250 257 250 259 259 270 296 263 248 246 241 234 227 226 224 232 232 233 250 260 238 223 211 207 209 204 205 199 203 213 207 209 208 204 200 202 205 194 198 199 196 194 197 199 200 198 210 210 212 210 211 225 222 223 224 221 222 222 220 217 216 213 214 218 214 220 221 221 224 214 218 223 227 228 222 214 215 206 238 210 217 242 200 196
179 184 195 199 224 204 286 251 317 254 157 265 152 242 254 252 257 263 250 243 246 241 232 241 230 230 228 225 230 236 239 240 223 236 231 215 211 207 200 207 209 209 206 207 212 206 206 206 209 202 200 198 202 199 195 202 200 204 200 206 200 218 219 216 225 227 216 221 223 223 222 221 221 221 215 211 215 218 221 221 225 224 223 218 224 230 222 224 213 213 202 212 229 225 235 226 179
178 175 167 213 141 159 256 284 34 213 162 252 160 288 275 264 253 254 248 239 246 238 235 237 225 232 229 226 219 222 229 233 225 223 226 215 209 206 202 207 211 204 207 212 210 209 208 211 208 204 204 200 201 202 202 203 199 201 207 200 202 201 206 209 220 225 219 215 226 219 222 219 217 223 219 215 216 220 219 223 226 224 226 216 220 230 221 226 212 214 207 220 207 238 216 243 195
212 190 192 189 178 192 160 222 57 343 300 50 331 306 286 237 250 259 251 245 250 254 247 252 251 237 240 251 237 217 223 221 224 225 230 220 211 210 207 210 203 203 209 210 206 207 209 209 208 204 202 201 203 200 200 194 186 194 197 202 167 221 255 215 217 234 222 222 226 219 222 209 216 220 218 218 216 222 222 225 225 228 226 221 218 229 229 224 215 210 205 209 204 219 239 230 232
206 220 189 198 163 171 84 132 110 34 317 328 130 332 281 294 258 248 279 344 256 239 231 251 245 241 231 236 238 235 231 222 218 217 217 213 209 212 213 213 206 210 213 214 207 209 208 210 207 205 204 203 204 201 194 188 192 190 184 195 208 210 222 213 220 224 215 218 224 224 213 207 214 220 218 219 219 220 225 224 227 228 226 223 217 226 231 224 217 206 205 206 217 218 229 215 237
188 216 165 199 177 158 148 147 94 205 207 291 9 186 272 338 293 254 263 245 261 264 229 246 244 243 231 231 233 232 228 230 233 231 226 219 217 211 213 211 209 211 218 212 208 210 209 210 205 202 203 205 200 197 188 188 196 201 201 205 207 209 220 229 227 227 220 223 217 219 218 203 209 213 219 217 219 218 221 223 223 224 225 222 217 220 226 224 220 213 199 203 216 213 204 234 226
214 168 162 140 124 153 182 161 159 190 244 317 44 122 247 301 272 227 254 260 264 267 251 246 245 240 232 232 227 228 227 222 221 221 219 219 211 205 211 210 208 214 216 207 211 208 207 210 204 202 203 202 198 191 188 192 198 202 206 212 214 219 219 231 214 220 212 206 210 217 210 212 205 208 213 214 217 217 217 223 220 222 222 222 212 219 225 224 219 214 201 207 211 204 205 222 235
235 124 140 143 149 159 167 151 138 156 108 259 319 340 287 249 269 302 341 264 274 259 251 247 236 233 230 230 232 231 229 221 216 220 218 215 212 212 215 215 215 213 212 208 208 207 209 207 204 200 202 200 197 190 192 196 202 202 205 208 219 225 227 234 208 204 208 203 221 212 211 212 209 209 210 212 213 215 213 218 219 222 222 223 213 224 225 216 214 215 210 207 209 212 208 218 225
296 101 78 85 79 71 115 135 103 335 116 245 197 180 216 280 242 257 13 235 253 249 250 250 236 228 222 231 238 239 240 230 223 226 225 218 215 213 211 214 212 213 212 211 213 208 205 196 200 198 206 200 196 194 195 199 202 202 207 211 218 226 221 229 197 216 213 198 223 218 215 212 211 213 212 215 214 213 216 212 218 222 222 222 213 222 221 217 218 221 219 216 216 219 216 216 220
146 95 89 65 56 70 54 77 98 63 257 235 195 185 131 297 237 203 160 226 228 266 262 254 259 253 246 230 229 233 236 235 230 228 226 223 217 216 210 212 216 215 213 205 203 197 195 196 198 201 208 199 193 198 195 201 199 203 212 213 218 225 220 214 218 228 212 209 224 219 213 215 211 218 209 218 214 214 218 215 216 221 222 218 217 220 222 220 220 219 220 219 218 219 223 221 227
131 101 125 91 26 15 34 337 34 189 247 188 178 173 159 209 288 272 244 287 244 211 257 277 276 260 246 233 235 238 236 238 236 227 232 232 231 226 209 219 216 211 202 204 201 196 195 197 194 205 209 203 200 198 196 202 199 207 214 215 221 224 216 215 220 228 214 221 220 223 208 214 219 218 214 216 215 212 220 222 219 221 220 218 221 221 223 221 224 220 219 218 221 221 225 223 223
130 115 121 149 168 150 217 125 205 214 199 300 153 131 20 227 239 280 275 245 268 230 223 242 247 264 270 270 257 244 244 247 240 230 226 221 217 213 208 216 209 205 203 202 204 200 199 195 195 202 212 205 202 194 199 202 202 209 211 215 223 220 218 221 226 230 216 220 213 217 204 221 215 222 216 218 217 209 217 225 222 224 222 217 222 221 223 221 220 221 221 221 219 220 221 225 231
165 168 164 173 158 195 205 183 12 31 22 335 151 6 269 285 293 232 250 259 252 253 241 232 234 249 266 268 280 280 258 246 244 232 223 218 214 214 209 207 205 206 205 203 203 199 199 201 201 203 216 199 199 196 201 200 209 212 210 215 220 214 222 220 226 227 218 215 204 214 212 215 218 221 216 218 211 212 217 223 226 229 229 228 223 225 225 222 221 221 220 219 220 226 229 228 227
188 176 177 188 177 184 199 162 191 179 147 314 308 116 230 142 239 245 256 256 281 282 268 248 240 244 253 269 279 275 274 262 243 237 225 218 217 212 209 207 208 207 206 205 202 203 198 203 201 208 219 202 197 201 196 204 212 213 212 215 217 213 221 218 226 222 217 211 206 211 219 215 219 221 216 220 206 209 218 221 226 231 232 229 227 228 229 230 227 227 226 227 229 229 234 236 230
201 168 70 178 225 138 120 195 114 152 122 338 223 212 189 206 284 299 261 255 258 253 265 264 267 259 261 278 265 255 252 256 240 235 238 237 229 222 223 223 218 213 210 207 206 200 199 207 204 210 213 205 200 200 202 206 210 204 209 213 215 212 217 218 226 217 218 206 210 211 220 214 217 220 218 211 214 209 217 221 223 227 230 231 230 230 230 229 229 232 235 235 237 225 228 231 232
173 135 202 206 86 99 95 43 40 80 55 239 105 297 282 303 286 262 275 279 269 244 250 267 266 268 282 263 257 251 248 255 246 231 233 236 231 227 217 214 213 211 206 206 205 199 203 203 204 212 218 209 202 204 208 209 211 204 211 210 208 208 210 213 219 217 215 211 214 216 217 218 216 214 219 210 217 214 219 219 223 226 227 228 230 230 229 229 227 228 231 237 241 233 226 223 214
108 198 204 109 107 97 133 173 356 90 195 251 185 233 273 47 275 354 340 286 267 283 258 252 261 263 266 256 250 244 238 241 257 251 250 246 236 231 228 225 215 208 209 211 213 207 208 206 206 211 215 212 210 204 208 209 209 210 211 208 209 207 208 216 218 222 212 208 217 218 217 222 214 214 215 219 215 219 218 219 224 226 225 225 228 230 229 230 228 229 232 234 235 229 229 231 219
172 190 152 154 206 208 247 112 194 176 227 258 283 295 257 200 245 290 281 235 285 286 295 298 261 250 241 253 256 255 263 279 274 262 256 248 232 229 222 224 226 230 228 225 223 204 208 211 208 204 212 211 207 204 209 216 209 210 207 207 202 204 209 216 219 216 199 209 217 214 218 221 222 218 221 221 218 219 217 218 219 226 222 223 223 225 225 228 228 232 233 236 231 221 227 239 243
46 96 176 205 93 245 152 205 142 117 244 74 290 59 245 196 231 201 248 253 237 271 295 272 252 243 237 240 241 239 242 240 247 253 247 239 234 229 226 229 231 222 215 212 192 181 200 205 198 208 210 192 186 193 194 203 204 201 209 208 213 212 214 214 209 198 208 213 216 212 219 223 223 219 222 220 219 218 216 219 218 221 224 223 223 225 225 228 227 232 233 231 234 234 237 235 241
148 164 187 190 173 283 113 25 147 180 188 198 183 288 256 252 215 221 234 240 240 232 249 249 257 259 246 238 239 230 235 241 240 238 241 241 244 227 220 238 236 232 218 194 186 195 204 194 204 199 195 194 196 197 189 205 191 206 205 210 213 207 211 203 202 206 211 216 215 215 218 223 214 224 214 218 217 215 214 215 215 216 221 222 223 229 225 226 234 239 240 229 227 219 227 239 232
186 183 195 186 165 149 174 225 64 129 133 221 139 245 281 270 197 223 229 236 242 241 228 252 247 244 247 248 245 223 227 236 237 240 242 265 284 285 323 204 199 163 190 194 209 188 187 197 206 198 199 201 198 201 201 202 199 199 205 208 205 199 197 194 204 201 211 211 214 213 213 193 203 224 203 218 217 219 214 214 211 212 214 221 225 230 228 224 230 236 244 236 222 208 209 222 216